Stansted, United Kingdom

7:18 AM BST on August 25, 2016 (GMT +0100)
Stansted

Weather History for EGSS - December, 2012

Change the Weather History Date:

Monday, December 17, 2012

  Actual Average Record
Temperature  
Mean Temperature 40 °F -  
Max Temperature 46 °F 42 °F 59 °F (2015)
Min Temperature 35 °F 33 °F 19 °F (2010)
Degree Days  
Heating Degree Days 24    
Moisture  
Dew Point 38 °F    
Average Humidity 91    
Maximum Humidity 100    
Minimum Humidity 76    
Precipitation  
Precipitation 0.00 in - - ()
Sea Level Pressure  
Sea Level Pressure 29.54 in    
Wind  
Wind Speed 8 mph ()    
Max Wind Speed 13 mph    
Max Gust Speed -    
Visibility 5.4 miles    
Events Rain    
Averages and records for this station are not official NWS values.
T = Trace of Precipitation, MM = Missing Value Source: Averaged Metar Reports

Daily Weather History Graph

Daily Weather History Graph

Search for Another Location

Airport or City:

Trip Planner

Search our weather history database for the weather conditions in past years. The results will help you decide how hot, cold, wet, or windy it might be!

Date:

Astronomy

Dec. 17, 2012 Rise Set
Actual Time 8:02 AM GMT 3:48 PM GMT
Civil Twilight 7:21 AM GMT 4:29 PM GMT
Nautical Twilight 6:37 AM GMT 5:13 PM GMT
Astronomical Twilight 5:56 AM GMT 5:54 PM GMT
Moon 10:33 AM GMT (12/17) 9:26 PM GMT (12/17)
Length of Visible Light 9h 08m
Length of Day
7h 46m
Waxing Crescent, 23% of the Moon is Illuminated
Dec 17
Waxing Crescent
Dec 20
First Quarter
Dec 28
Full
Jan 5
Last Quarter
Jan 11
New

Hourly Weather History & Observations

Time (GMT) Temp. Windchill Dew Point Humidity Pressure Visibility Wind Dir Wind Speed Gust Speed Precip Events Conditions
12:20 AM 39.2 °F 33.6 °F 39.2 °F 100% 29.47 in 6.2 mi South 8.1 mph - N/A   Scattered Clouds
12:50 AM 39.2 °F 34.2 °F 39.2 °F 100% 29.47 in 5.6 mi South 6.9 mph - N/A   Mostly Cloudy
1:20 AM 41.0 °F 36.4 °F 41.0 °F 100% 29.47 in 6.2 mi South 6.9 mph - N/A   Mostly Cloudy
1:50 AM 39.2 °F 34.2 °F 37.4 °F 93% 29.47 in 5.0 mi South 6.9 mph - N/A   Mostly Cloudy
2:20 AM 41.0 °F 35.2 °F 39.2 °F 93% 29.47 in 6.2 mi SSW 9.2 mph - N/A   Scattered Clouds
2:50 AM 39.2 °F 33.6 °F 37.4 °F 93% 29.47 in 5.6 mi SSW 8.1 mph - N/A   Scattered Clouds
3:20 AM 39.2 °F 34.2 °F 39.2 °F 100% 29.47 in 4.3 mi SSW 6.9 mph - N/A   Scattered Clouds
3:50 AM 39.2 °F 33.6 °F 39.2 °F 100% 29.44 in 4.3 mi SSW 8.1 mph - N/A   Partly Cloudy
4:20 AM 39.2 °F 33.6 °F 37.4 °F 93% 29.44 in 5.0 mi SSW 8.1 mph - N/A   Unknown
4:50 AM 39.2 °F 33.6 °F 37.4 °F 93% 29.44 in 3.7 mi SSW 8.1 mph - N/A   Unknown
5:20 AM 37.4 °F 31.4 °F 35.6 °F 93% 29.47 in 3.7 mi SW 8.1 mph - N/A   Partly Cloudy
5:50 AM 37.4 °F 31.4 °F 37.4 °F 100% 29.47 in 3.7 mi SW 8.1 mph - N/A   Unknown
6:20 AM 35.6 °F 29.9 °F 35.6 °F 100% 29.47 in 3.7 mi SW 6.9 mph - N/A   Unknown
6:50 AM 39.2 °F 32.5 °F 37.4 °F 93% 29.47 in 5.6 mi SW 10.4 mph - N/A   Unknown
7:20 AM 37.4 °F 30.8 °F 37.4 °F 100% 29.50 in - SW 9.2 mph - N/A   Clear
7:50 AM 37.4 °F 31.4 °F 37.4 °F 100% 29.50 in - SW 8.1 mph - N/A   Clear
8:20 AM 37.4 °F 32.8 °F 35.6 °F 93% 29.50 in - SW 5.8 mph - N/A   Clear
8:50 AM 37.4 °F 32.1 °F 37.4 °F 100% 29.50 in - SW 6.9 mph - N/A   Clear
9:20 AM 41.0 °F 35.2 °F 39.2 °F 93% 29.53 in - WSW 9.2 mph - N/A   Clear
9:50 AM 41.0 °F 35.8 °F 39.2 °F 93% 29.53 in - WSW 8.1 mph - N/A   Clear
10:20 AM 41.0 °F 35.2 °F 39.2 °F 93% 29.53 in 6.2 mi WSW 9.2 mph - N/A Rain Light Rain
10:50 AM 42.8 °F 37.0 °F 41.0 °F 93% 29.56 in - WSW 10.4 mph - N/A   Clear
11:20 AM 44.6 °F 39.2 °F 41.0 °F 87% 29.56 in - WSW 10.4 mph - N/A   Clear
11:50 AM 44.6 °F 38.8 °F 41.0 °F 87% 29.56 in - WSW 11.5 mph - N/A   Clear
12:20 PM 46.4 °F 41.5 °F 41.0 °F 81% 29.56 in - WSW 10.4 mph - N/A   Clear
12:50 PM 46.4 °F 41.5 °F 41.0 °F 81% 29.56 in - WSW 10.4 mph - N/A   Clear
1:20 PM 46.4 °F 41.9 °F 41.0 °F 81% 29.56 in - West 9.2 mph - N/A   Clear
1:50 PM 46.4 °F 42.4 °F 41.0 °F 81% 29.56 in - WSW 8.1 mph - N/A   Clear
2:20 PM 46.4 °F 41.5 °F 39.2 °F 76% 29.56 in - WSW 10.4 mph - N/A   Clear
2:50 PM 46.4 °F 41.1 °F 39.2 °F 76% 29.59 in 6.2 mi WSW 11.5 mph - N/A   Partly Cloudy
3:20 PM 44.6 °F 40.2 °F 39.2 °F 81% 29.59 in 6.2 mi WSW 8.1 mph - N/A   Partly Cloudy
3:50 PM 42.8 °F 38.0 °F 37.4 °F 81% 29.59 in - WSW 8.1 mph - N/A   Clear
4:20 PM 41.0 °F 35.2 °F 37.4 °F 87% 29.59 in - SW 9.2 mph - N/A   Clear
4:50 PM 41.0 °F 34.3 °F 37.4 °F 87% 29.62 in - SSW 11.5 mph - N/A   Clear
5:20 PM 41.0 °F 34.7 °F 37.4 °F 87% 29.62 in 6.2 mi SSW 10.4 mph - N/A   Partly Cloudy
5:50 PM 42.8 °F 36.6 °F 37.4 °F 81% 29.62 in 6.2 mi SSW 11.5 mph - N/A   Mostly Cloudy
6:20 PM 42.8 °F 37.0 °F 39.2 °F 87% 29.62 in 6.2 mi SW 10.4 mph - N/A   Partly Cloudy
6:50 PM 41.0 °F 34.3 °F 37.4 °F 87% 29.62 in 6.2 mi SW 11.5 mph - N/A   Partly Cloudy
7:20 PM 41.0 °F 33.9 °F 37.4 °F 87% 29.62 in - SW 12.7 mph - N/A   Clear
7:50 PM 41.0 °F 34.3 °F 37.4 °F 87% 29.62 in 6.2 mi SW 11.5 mph - N/A   Partly Cloudy
8:20 PM 39.2 °F 32.5 °F 37.4 °F 93% 29.65 in - SW 10.4 mph - N/A   Clear
8:50 PM 41.0 °F 34.3 °F 37.4 °F 87% 29.65 in - SW 11.5 mph - N/A   Clear
9:20 PM 39.2 °F 32.5 °F 37.4 °F 93% 29.65 in - SW 10.4 mph - N/A   Clear
9:50 PM 39.2 °F 32.0 °F 37.4 °F 93% 29.65 in - SW 11.5 mph - N/A   Clear